Temp
19 17 17 17 18 19 19 20 20 21 22 22 22 22 22 22 22 24 25 27 28 26 25 26 26 26 24 21 20 20 20 19 18 18 18 18 17 17 18 17 17 17 17 17 16 17 17 17 17 17 17 17 18 18 19 19 19 19 20 20 20 21 21 20 20 20 20 20 20 20 20 20 19 19 19 19 19 19 19 18 18 18 18 18 18 18
18 17 16 18 19 20 20 20 21 21 22 22 22 21 22 22 22 25 26 27 27 25 25 26 25 26 24 21 19 20 20 19 19 19 18 18 17 18 18 17 17 17 16 16 16 16 17 17 17 17 17 17 17 18 18 19 19 20 20 20 20 20 20 20 20 20 20 20 20 20 20 19 19 19 19 19 19 18 18 18 18 18 18 18 18 18
17 16 17 19 19 20 21 21 21 21 21 21 21 21 21 22 23 24 26 26 27 25 25 26 25 25 24 21 19 20 21 19 19 19 19 18 17 17 17 17 17 17 17 17 16 16 16 17 17 17 17 17 18 18 18 18 19 19 19 20 20 20 20 20 20 20 20 20 20 20 20 20 19 19 19 19 18 18 18 18 18 18 18 18 18 18
16 16 18 19 20 20 20 21 21 21 21 21 21 21 20 22 23 22 24 26 26 26 26 26 25 24 24 22 21 21 20 19 19 19 19 18 18 18 17 17 17 17 17 17 17 16 16 16 17 17 17 17 18 18 18 18 19 19 19 20 20 20 20 20 20 20 20 20 20 20 20 19 19 19 18 18 18 18 18 18 18 18 18 18 18 18
16 18 19 20 20 20 20 21 21 20 20 20 20 21 21 22 22 22 24 25 26 26 27 26 23 22 22 22 22 21 20 19 18 18 18 18 18 18 17 17 17 17 16 17 17 17 16 16 16 17 17 17 17 18 18 18 19 19 19 19 19 19 20 20 19 20 20 20 19 19 19 19 18 18 18 17 17 18 18 18 18 18 18 18 18 17
17 19 20 20 20 20 20 20 20 20 20 20 21 21 22 22 23 23 24 25 23 23 25 25 21 21 22 22 22 20 20 19 18 18 18 18 18 18 17 17 17 17 16 16 17 17 17 16 16 17 17 17 17 17 18 18 19 19 19 19 19 19 19 19 19 19 20 19 19 19 19 18 18 17 17 17 17 18 18 18 18 18 18 18 17 17
18 20 20 19 19 20 20 20 21 21 20 19 21 22 23 23 23 23 24 23 21 21 25 25 22 21 21 21 21 20 20 19 18 18 18 17 18 17 17 17 17 17 16 17 17 17 17 17 16 16 17 17 17 17 17 18 18 19 18 18 19 19 19 19 19 19 19 19 19 19 19 18 18 17 17 17 18 18 18 18 18 17 17 17 17 17
19 19 19 20 19 19 19 20 21 22 20 20 22 23 23 23 23 23 23 22 22 22 24 25 23 21 20 21 20 20 19 19 18 18 18 17 17 17 17 17 17 17 16 17 17 17 17 17 17 17 17 17 17 17 17 18 18 18 18 18 18 19 19 19 19 19 19 19 19 19 19 18 18 18 17 17 18 18 18 17 17 17 17 16 16 16
20 19 19 19 19 19 19 20 22 22 21 21 23 24 23 23 23 24 24 22 23 22 21 23 23 21 20 20 20 19 19 19 19 18 18 17 17 17 17 17 17 17 17 17 17 17 17 17 17 17 17 17 17 17 17 17 18 18 18 18 18 18 18 18 18 19 19 19 19 19 18 18 18 18 18 17 18 17 17 17 16 16 16 16 16 16
20 20 20 20 19 19 20 22 23 22 22 23 24 24 24 24 24 24 24 22 22 21 21 22 23 21 20 20 20 20 20 20 19 18 18 17 17 17 17 17 17 17 17 17 17 17 17 17 17 17 17 17 17 17 17 18 18 17 18 18 18 18 18 18 18 19 19 19 19 19 19 18 18 17 17 18 17 17 17 16 16 16 16 16 16 16
21 21 21 21 20 21 22 23 23 23 23 24 24 24 23 23 24 24 23 22 21 21 21 22 23 22 20 20 20 20 21 21 19 18 18 18 18 17 17 17 17 17 17 17 18 17 17 17 17 17 17 17 17 17 17 17 18 17 17 17 17 18 18 18 18 18 18 19 19 19 19 19 18 17 17 17 17 17 16 16 16 16 16 15 15 15
20 21 21 22 22 22 22 23 23 23 23 24 24 23 22 22 22 22 22 21 21 20 21 23 23 22 21 20 20 21 23 22 20 19 18 18 18 17 17 17 17 17 17 17 18 17 17 17 17 17 17 17 17 17 17 17 17 17 17 17 17 17 17 17 18 18 18 18 19 19 19 18 18 18 18 17 17 16 16 15 15 15 15 15 15 15
19 20 21 22 23 23 22 22 22 23 23 23 23 22 21 20 21 21 20 21 21 21 22 23 23 22 22 22 21 22 22 22 21 20 19 18 18 17 17 17 17 17 17 18 18 17 17 17 17 17 17 17 17 17 17 17 17 17 17 17 17 17 17 17 17 18 18 18 18 19 19 18 18 18 18 17 17 16 15 15 15 15 15 15 15 15
18 20 21 22 22 23 23 21 21 21 22 22 22 21 20 20 20 20 20 20 21 21 22 23 23 21 22 24 23 22 23 22 21 20 19 19 18 18 17 17 17 17 17 17 17 17 17 17 17 17 17 17 17 17 17 17 17 17 17 17 17 17 17 17 17 17 18 18 18 18 18 18 18 18 17 17 17 16 16 15 15 15 15 15 15 14
17 18 20 21 22 23 23 22 22 22 22 22 22 22 21 20 21 20 20 21 21 21 22 22 22 21 22 24 24 23 23 23 21 20 19 19 18 18 17 17 17 17 17 17 17 17 17 17 17 17 17 17 17 17 17 17 17 17 17 17 17 17 17 17 17 17 18 18 18 18 18 18 18 17 17 17 17 16 16 16 15 15 15 15 14 14
17 18 21 22 23 23 23 23 24 23 22 22 23 22 21 21 22 21 21 21 21 21 21 21 22 22 23 23 23 23 23 21 20 19 18 18 18 18 17 17 17 17 17 17 17 17 17 17 17 17 18 17 17 17 17 17 17 17 17 17 17 16 17 17 17 17 17 17 17 17 17 17 17 17 17 17 17 16 16 16 15 15 15 15 15 14
18 19 22 23 23 24 23 24 25 24 22 22 22 22 22 23 23 21 20 21 21 21 21 21 22 23 24 23 21 22 21 19 19 19 18 18 18 17 17 17 17 17 17 17 17 17 17 17 17 17 18 17 17 17 17 17 17 17 17 17 16 16 16 17 17 17 17 17 17 17 17 17 17 17 17 17 16 16 15 15 15 15 15 15 15 15
19 19 22 23 22 23 24 24 25 25 24 23 21 22 24 24 23 22 21 21 21 21 21 21 21 22 22 22 21 20 19 19 19 18 18 18 18 17 17 17 17 17 17 18 18 18 17 17 17 17 17 17 17 17 17 17 17 17 17 17 16 16 16 17 17 17 17 17 17 17 17 17 17 17 16 16 16 15 15 15 15 15 15 15 15 14
20 20 21 23 23 23 24 24 23 24 25 24 23 24 24 22 21 21 21 21 21 21 21 21 21 21 22 21 20 20 19 18 19 18 18 18 17 17 17 17 17 17 18 18 18 18 17 17 18 17 17 17 17 17 17 17 17 17 17 17 16 16 16 17 17 17 17 17 17 17 17 17 16 16 16 15 15 15 15 15 15 15 15 15 15 14
20 20 20 22 24 23 23 23 21 22 24 24 25 25 24 23 22 21 21 21 21 21 21 21 21 21 23 22 21 20 19 19 19 18 18 18 18 18 17 17 17 17 18 18 18 17 18 18 18 17 17 17 17 17 17 17 17 17 16 16 16 16 17 17 17 17 17 17 17 16 16 16 16 16 15 15 15 15 15 15 15 15 15 15 15 14
20 20 20 22 23 23 22 22 21 21 22 23 23 22 23 23 22 22 21 21 21 21 21 21 21 21 24 23 21 21 20 19 19 19 19 18 18 18 18 17 17 17 18 18 18 18 18 18 17 17 17 17 17 17 17 17 17 16 16 16 16 16 17 17 16 17 16 16 16 16 16 15 15 15 15 15 15 15 15 15 15 15 15 15 15 14
19 20 21 21 21 21 22 23 23 23 23 23 23 22 22 23 22 21 21 21 21 21 21 21 20 22 24 23 22 22 20 20 20 20 19 19 18 18 18 17 17 17 18 18 18 18 17 17 17 17 17 17 17 17 16 16 16 16 16 16 16 16 16 16 16 16 16 16 16 16 15 15 15 15 14 14 14 15 15 15 15 15 14 14 14 14
20 20 20 21 21 22 23 24 25 24 25 24 24 24 23 23 22 21 21 21 22 21 21 21 21 23 24 23 23 23 21 20 21 20 20 19 19 19 18 17 17 18 18 18 18 18 17 17 17 17 17 17 17 16 16 16 16 16 16 16 16 16 16 16 16 16 16 15 15 15 15 15 14 14 14 14 14 15 15 14 14 14 14 14 14 14
21 20 20 20 21 23 24 24 25 25 25 24 24 24 23 23 23 23 22 22 22 21 21 21 20 23 24 22 22 23 21 21 21 21 20 19 19 19 18 17 18 18 18 18 17 18 17 17 17 17 17 16 16 16 16 16 16 16 16 15 16 16 16 15 15 15 15 15 15 14 14 14 14 14 14 14 14 14 14 14 14 14 14 14 14 14
21 20 21 20 20 21 22 23 23 23 23 23 23 24 24 24 25 25 23 22 22 21 21 21 21 22 24 22 21 22 22 21 21 21 20 20 19 19 18 18 18 18 17 17 17 17 17 17 17 17 16 16 16 16 16 16 16 16 15 15 15 15 15 15 15 15 15 15 14 14 14 14 14 14 13 14 14 14 13 13 13 14 14 14 14 14
22 20 21 20 19 19 20 20 21 22 22 23 24 24 24 24 24 24 22 21 21 20 21 21 21 22 23 22 21 22 22 21 21 21 20 20 19 19 18 18 18 18 17 16 17 17 17 17 17 16 16 16 16 16 16 16 16 15 15 15 15 15 15 15 15 15 14 14 14 14 14 14 14 13 13 14 14 14 13 13 13 14 14 14 14 14
22 21 21 21 20 20 20 21 22 22 22 22 23 23 24 24 24 23 22 21 21 21 21 21 21 21 22 21 21 22 21 21 21 20 20 20 19 19 18 18 18 18 17 16 16 16 16 17 17 16 16 16 16 16 16 16 15 15 15 14 15 15 15 14 14 14 14 14 14 14 14 13 13 13 13 13 14 13 13 13 13 14 14 14 14 14
22 21 21 21 21 21 22 22 23 23 22 22 23 23 23 24 24 23 22 22 22 21 21 21 22 22 21 20 21 21 21 21 20 20 20 19 19 19 18 18 18 17 17 16 16 16 16 16 16 16 16 16 16 16 16 16 15 15 15 14 14 14 14 14 14 14 14 14 14 13 13 13 13 13 13 13 13 13 13 13 13 13 13 13 13 13
22 21 21 21 22 22 23 23 24 24 23 23 23 23 23 23 23 23 23 23 22 22 22 22 22 22 22 20 20 21 21 21 20 20 20 19 19 18 18 18 18 17 17 16 16 16 16 16 16 16 16 16 16 16 16 15 15 15 14 14 14 14 14 14 14 14 13 13 13 13 13 13 13 13 13 13 13 13 13 13 13 13 13 13 13 13
21 21 21 22 22 22 23 23 23 24 23 23 23 24 23 23 24 24 24 23 23 23 24 23 22 22 22 20 20 21 21 20 20 19 19 19 18 18 18 18 18 17 17 16 15 15 15 15 16 16 16 16 16 16 16 15 15 14 14 14 14 14 14 14 13 13 13 13 13 13 13 13 13 13 13 13 13 13 13 13 13 12 12 12 12 12
21 20 20 22 22 21 22 22 23 24 23 23 23 24 23 22 23 24 24 23 23 22 23 23 23 22 21 20 20 20 19 19 19 18 18 18 18 18 18 18 18 17 17 15 15 15 15 15 16 16 16 16 16 16 16 15 15 14 14 13 13 13 13 13 13 13 13 12 12 12 12 13 13 13 13 13 13 13 13 12 12 12 12 12 11 11
22 20 20 21 21 21 21 22 22 23 22 22 23 23 23 22 22 23 24 24 24 22 21 22 23 23 20 19 19 18 18 18 18 18 18 18 17 18 18 18 17 17 16 15 15 15 15 15 15 15 16 16 16 16 16 15 14 14 13 13 13 13 13 13 13 12 12 12 12 12 12 12 13 13 13 12 12 12 12 12 12 12 12 11 11 10
22 21 20 21 21 20 21 21 21 22 21 21 22 22 22 22 22 23 23 24 25 23 22 23 24 23 19 18 19 18 18 18 18 18 18 17 17 18 18 17 17 17 16 15 15 16 15 15 15 15 16 16 16 16 15 15 14 14 13 13 13 13 13 13 12 12 12 12 12 12 12 12 12 12 12 12 12 12 12 12 12 11 11 11 10 10
21 21 20 20 21 20 20 20 21 21 20 20 21 21 21 22 23 24 24 25 24 23 23 23 23 21 18 19 19 18 18 18 18 18 18 17 17 17 17 17 17 16 16 15 15 16 15 15 16 15 16 16 16 16 15 15 14 14 13 13 13 13 13 12 12 12 12 12 12 12 12 12 12 12 12 12 12 12 12 12 11 11 11 10 10 10
21 21 20 19 20 20 19 20 20 19 20 21 21 20 20 20 22 24 25 25 23 22 24 23 20 19 19 20 19 19 19 19 18 18 18 17 17 17 17 17 16 16 16 15 15 16 15 15 15 15 16 16 15 15 15 14 14 13 13 13 13 12 12 12 12 12 12 12 12 12 12 12 12 12 12 11 11 11 11 11 11 10 10 10 10 10
21 21 20 19 19 19 20 20 19 19 20 21 21 21 20 20 21 23 24 22 20 21 24 23 20 19 20 20 19 19 19 18 18 18 17 17 17 17 17 16 16 16 16 16 16 15 15 15 15 15 15 15 15 15 14 14 13 13 12 13 13 12 12 12 12 12 12 12 12 12 12 12 12 12 12 11 11 11 11 11 10 10 10 10 10 9
22 21 21 20 19 19 19 19 19 19 20 21 21 21 21 21 22 22 22 21 19 20 21 22 20 19 19 19 19 18 18 19 19 18 18 17 17 17 16 16 16 16 16 16 16 16 15 15 15 15 15 15 15 14 14 13 13 13 12 12 12 12 12 12 12 12 12 12 12 12 12 12 12 12 11 11 11 11 11 11 10 10 10 10 9 9
22 21 21 20 18 18 19 19 19 19 20 21 21 20 21 21 20 21 22 22 20 19 19 20 20 20 19 19 18 18 19 19 19 19 18 18 17 17 16 16 16 16 16 16 16 16 15 15 15 15 15 15 14 14 14 13 13 13 12 12 12 12 12 12 12 12 11 12 12 12 12 12 12 11 11 11 11 11 11 10 10 10 10 10 9 8
21 20 20 20 19 19 20 19 19 20 20 20 20 21 21 20 20 21 22 22 21 20 19 19 20 19 19 19 18 19 20 20 19 19 19 17 17 17 16 16 15 15 15 16 16 16 15 15 15 15 15 15 14 14 13 13 13 13 13 12 12 12 12 12 12 12 12 12 12 12 12 12 12 11 11 12 11 11 11 10 10 10 9 9 9 8
20 20 20 20 19 19 20 19 18 19 20 19 20 20 21 20 21 22 21 21 21 20 18 19 20 19 19 19 19 20 22 22 21 20 18 17 17 16 16 16 15 15 15 15 16 16 15 15 15 14 14 14 13 13 13 13 13 13 12 12 12 12 12 12 12 12 12 12 12 12 12 12 12 11 12 12 11 11 10 10 10 9 9 9 8 8
20 20 19 19 19 19 19 19 18 19 20 19 20 20 20 21 22 22 20 20 20 19 18 18 20 19 19 19 20 21 22 22 21 19 17 17 17 16 15 15 15 15 15 15 15 15 15 15 14 14 14 14 13 13 13 13 13 12 12 12 12 12 12 12 12 12 12 12 12 12 12 12 12 12 12 12 11 11 10 10 10 9 9 8 8 8
19 19 19 19 19 19 19 19 18 19 19 19 19 20 21 21 21 20 19 19 19 18 18 18 19 19 19 19 21 21 20 18 18 17 17 17 17 16 15 15 15 15 15 15 15 15 14 14 14 14 13 13 13 13 13 13 12 12 11 12 12 12 12 12 12 12 12 12 12 12 12 12 12 12 12 11 11 10 10 10 9 9 8 8 8 8
19 19 19 19 19 18 18 19 18 19 18 17 18 20 20 20 20 20 19 18 18 18 18 18 19 19 20 20 20 19 18 17 17 17 16 16 16 15 15 15 15 14 14 14 14 14 14 14 13 13 13 12 12 12 13 13 12 12 11 11 12 12 12 12 12 12 12 12 12 12 12 12 12 12 11 11 11 10 10 9 9 9 8 8 8 7
18 19 19 19 18 18 19 18 17 17 16 15 16 19 19 18 19 19 19 19 18 18 18 19 19 19 20 20 18 17 17 17 16 16 15 15 15 15 15 15 14 14 14 14 14 14 14 13 13 12 12 12 12 12 12 12 12 12 11 11 12 12 12 12 12 12 12 12 12 12 12 12 12 12 11 11 11 10 10 9 9 8 8 8 8 7
17 17 18 17 15 16 17 16 15 15 14 14 15 16 17 18 18 18 19 19 19 19 18 19 19 18 18 18 17 17 17 16 16 15 15 15 14 15 14 14 14 14 14 14 14 14 14 13 12 12 12 12 12 12 12 12 12 11 11 11 11 12 12 12 12 12 12 12 12 12 12 11 11 11 11 11 10 10 9 9 9 8 8 8 7 7
16 16 17 16 15 15 16 15 15 15 15 15 15 15 15 17 17 18 19 19 19 19 18 18 19 19 18 17 17 17 16 16 15 15 15 14 14 14 14 14 13 14 14 14 13 13 13 13 12 12 12 12 12 12 12 12 12 11 11 11 11 12 12 12 12 12 12 12 12 11 11 11 11 11 11 11 11 10 10 9 9 8 8 8 8 7
16 16 16 16 16 16 16 16 15 15 15 16 17 17 16 17 17 18 18 18 18 19 19 19 19 19 19 18 18 17 16 15 15 15 14 14 14 14 14 14 13 14 14 13 13 13 13 12 12 12 12 12 12 12 12 12 12 12 12 12 12 12 12 12 12 12 11 11 11 11 11 11 10 10 11 10 10 10 10 9 9 8 8 8 7 7
16 17 17 16 16 16 16 16 15 15 15 16 17 17 16 17 18 18 17 17 18 19 19 19 19 20 19 19 17 16 15 15 15 14 14 14 14 14 14 13 13 14 14 14 13 13 13 13 12 12 12 12 12 12 12 12 12 12 12 12 12 12 12 12 12 11 11 11 11 11 11 10 10 10 10 10 10 10 9 9 9 9 8 8 8 7
16 16 16 16 15 15 15 15 15 15 16 16 16 17 17 17 18 18 17 17 18 19 19 19 19 19 19 18 16 16 15 15 14 14 14 14 14 13 13 13 13 14 14 13 13 14 14 13 13 13 12 12 12 12 12 12 12 12 12 12 12 12 11 11 11 11 11 11 11 10 10 10 10 11 10 10 10 9 9 9 9 9 9 9 9 9
15 16 15 15 15 15 16 16 16 16 16 16 16 17 17 17 17 17 17 17 17 17 18 19 18 17 17 16 16 16 15 15 14 14 14 14 14 13 13 13 13 13 13 13 13 13 14 13 13 13 12 12 12 12 12 12 12 12 12 12 12 11 11 11 11 11 10 10 10 10 10 10 10 10 10 10 9 9 9 9 9 9 9 9 9 9
15 15 16 16 16 16 16 16 16 16 16 16 16 16 16 16 17 17 17 16 16 16 16 18 18 17 16 15 15 15 16 15 14 14 14 13 13 13 13 13 13 13 13 13 13 13 13 13 13 13 12 11 12 12 12 12 12 12 12 12 12 12 11 11 11 10 10 10 10 10 10 10 10 10 10 9 9 9 9 8 9 9 9 9 9 9
Height
745 754 755 753 752 750 750 752 753 752 750 752 754 756 754 753 752 745 740 734 730 742 746 744 747 746 751 755 754 754 753 756 762 764 766 766 767 770 771 773 775 775 775 774 774 775 777 779 781 783 784 786 788 789 790 792 794 797 799 802 805 807 809 811 814 816 817 818 818 819 820 822 824 825 826 827 828 828 828 828 827 827 826 826 826 826
744 754 753 748 748 745 746 748 748 749 749 750 753 755 754 753 750 741 737 733 730 742 745 742 746 746 749 756 756 753 754 758 760 762 765 766 767 769 770 773 774 775 775 774 774 775 778 779 782 785 787 788 789 791 792 793 793 795 797 801 803 806 809 811 813 814 816 817 817 818 819 821 823 825 826 827 828 828 828 827 827 827 827 826 826 825
748 751 748 745 744 742 744 745 747 748 749 751 753 756 758 752 748 742 735 732 732 741 745 743 747 747 746 754 757 753 752 756 755 753 756 760 765 767 769 771 773 774 774 773 774 776 779 781 782 783 786 789 791 793 796 796 796 796 797 800 803 806 808 811 813 814 815 816 817 818 819 821 823 825 827 828 828 828 828 827 827 828 827 827 826 825
751 748 743 741 741 742 745 744 746 749 750 753 753 758 759 751 750 749 740 735 734 737 739 741 746 748 750 755 756 754 752 754 756 755 755 756 759 762 765 768 769 770 771 773 774 775 779 783 784 784 785 790 793 794 796 798 799 798 798 800 802 806 808 811 813 814 815 816 817 818 819 821 824 826 828 829 829 829 828 828 828 828 827 826 825 825
746 739 736 739 740 741 745 744 745 751 754 752 750 754 755 750 748 747 741 737 735 735 733 740 754 756 755 757 755 756 756 756 758 760 761 760 760 762 765 767 767 767 768 770 772 774 778 782 783 784 785 789 791 793 795 796 797 798 799 801 803 805 808 810 812 813 814 814 815 817 819 822 824 827 828 828 829 829 828 828 828 828 827 826 825 825
742 733 732 738 740 740 744 744 742 747 755 753 747 746 747 746 744 742 742 742 747 748 734 739 765 768 756 755 757 757 758 760 762 761 762 762 762 763 766 768 768 768 768 767 769 770 774 779 781 782 784 787 789 791 793 795 796 798 799 801 803 805 807 809 811 812 813 813 814 815 817 820 823 826 827 827 827 828 828 828 828 827 826 825 825 825
737 731 730 735 739 740 743 743 738 740 753 755 742 736 740 742 742 743 744 748 756 755 735 733 757 769 764 760 758 758 759 763 765 763 763 762 762 763 764 766 767 767 768 767 768 769 772 775 777 779 782 784 787 788 791 793 795 796 798 800 803 805 807 808 810 811 812 813 813 815 817 819 822 824 826 827 827 827 827 828 828 827 826 825 825 825
728 730 731 732 737 740 741 741 735 734 747 749 733 730 737 739 742 743 745 749 750 747 738 733 742 760 769 763 757 760 764 767 767 765 765 763 762 763 763 765 765 765 766 766 768 770 771 772 773 776 779 783 785 787 789 791 793 795 796 799 802 804 806 807 809 811 811 812 813 815 818 820 822 824 825 826 827 827 828 828 828 827 825 825 825 825
722 729 730 730 736 738 736 734 730 730 740 738 727 730 733 734 739 740 742 747 746 749 752 741 737 755 771 765 758 762 766 769 768 764 764 763 762 762 762 764 764 764 764 763 765 768 770 772 772 774 778 781 784 785 787 789 791 794 796 799 802 804 805 807 808 810 810 811 813 815 818 821 823 824 825 826 827 828 828 828 828 826 825 825 825 826
720 722 721 725 732 733 730 727 725 729 733 729 725 729 729 731 736 737 742 746 747 757 759 744 737 752 773 771 763 767 768 766 764 762 761 761 760 761 761 762 762 762 763 762 763 765 769 773 775 777 779 782 784 785 786 789 791 794 796 799 801 803 805 806 808 809 810 811 812 815 818 820 823 825 825 826 828 828 828 828 828 826 825 825 826 827
715 714 715 718 722 723 724 723 722 724 725 724 727 732 733 734 736 737 741 743 754 763 753 739 735 744 766 773 763 758 752 747 754 760 760 759 759 759 759 760 760 760 761 762 763 766 770 774 777 778 780 782 784 786 787 789 791 793 796 799 801 803 804 806 807 809 810 811 813 815 818 820 822 824 825 826 827 828 828 828 827 826 826 826 827 828
715 715 714 711 711 715 720 721 720 719 721 724 728 735 743 745 742 745 746 747 763 766 744 730 731 737 755 766 758 744 732 732 742 750 753 754 754 756 756 757 758 758 759 761 763 766 769 772 775 777 778 781 783 785 787 788 790 793 795 798 801 803 804 805 807 809 810 811 813 815 818 820 822 823 825 826 827 827 827 827 827 826 826 826 827 828
722 716 711 709 707 709 718 725 725 721 722 727 731 739 753 758 756 759 758 756 761 756 736 726 731 738 742 743 741 735 729 730 732 733 739 745 748 751 753 754 756 756 758 760 762 765 766 768 771 773 775 778 780 783 785 787 789 792 794 797 800 802 804 805 807 809 810 811 813 816 818 820 822 823 825 825 826 827 827 827 826 825 825 826 827 828
729 719 710 710 708 703 711 724 730 727 725 730 734 740 754 761 765 769 766 761 758 747 732 726 732 741 737 725 725 725 720 721 724 728 733 736 741 746 749 752 755 756 757 759 761 763 764 766 768 771 773 775 777 780 784 787 789 792 794 797 799 801 803 805 806 808 810 812 814 816 819 820 821 823 824 825 825 825 826 826 826 825 825 827 828 829
732 728 712 706 706 701 704 713 718 720 723 726 726 732 743 748 753 761 759 756 755 744 732 730 735 740 732 720 715 711 710 715 723 730 736 738 741 745 750 754 755 757 757 759 761 763 764 765 766 769 771 772 775 778 782 786 789 792 794 797 799 800 802 804 806 808 810 812 815 817 819 820 821 822 823 824 824 824 825 826 825 825 826 828 829 830
726 723 703 696 698 697 703 706 704 713 723 722 719 726 735 733 733 744 748 744 743 742 737 734 732 726 719 715 712 709 713 722 728 732 739 744 747 749 752 755 755 755 755 758 761 763 764 765 766 768 769 771 774 777 782 786 788 791 794 796 798 800 802 803 805 808 810 813 815 818 819 820 820 822 822 823 823 824 825 825 825 826 827 829 830 831
723 719 697 694 697 692 698 701 698 708 718 718 722 726 723 718 720 734 747 743 738 744 746 738 730 721 716 719 719 718 723 730 733 736 741 744 747 751 752 753 753 753 754 756 759 761 763 766 768 769 769 771 774 777 782 785 788 791 793 796 798 800 802 804 806 808 810 813 815 818 819 819 820 821 822 822 823 824 824 825 825 826 828 829 831 832
713 716 697 693 701 693 690 696 697 698 703 712 723 720 712 716 720 727 742 747 747 751 747 738 733 727 725 731 732 730 734 737 736 738 742 745 747 749 750 751 752 752 754 756 758 761 763 766 769 769 770 772 774 777 782 785 788 791 793 796 798 800 801 803 805 808 810 813 815 817 818 819 820 821 821 822 822 823 824 825 826 827 829 830 831 833
703 713 703 690 697 694 687 697 706 699 694 702 709 706 711 726 732 732 740 748 753 757 749 740 739 732 727 734 738 738 739 739 738 740 742 745 745 746 747 749 751 754 756 756 758 761 763 765 767 768 770 772 775 779 782 785 787 790 794 796 798 800 802 803 805 807 810 813 815 817 818 819 820 820 821 822 822 823 823 825 826 827 829 830 832 834
700 708 709 692 688 693 694 701 712 708 699 697 700 703 708 717 724 728 735 739 745 754 752 745 744 732 719 723 730 733 735 735 736 737 737 738 739 740 743 746 750 753 755 755 757 760 761 763 765 767 769 772 776 780 782 785 787 790 794 797 798 801 802 803 805 806 809 812 814 816 818 819 820 820 821 822 822 823 823 825 827 828 830 831 832 834
702 703 708 698 688 696 703 701 705 709 706 704 708 712 711 711 716 721 728 729 731 744 750 749 748 731 711 712 719 722 727 728 726 727 730 733 735 737 740 744 749 752 753 754 756 757 758 761 764 768 771 774 777 780 782 784 787 790 794 796 797 800 801 803 804 806 808 811 814 815 817 818 819 820 821 821 822 823 824 825 827 828 830 831 832 834
704 701 704 704 699 702 701 692 692 698 700 703 707 711 712 712 717 727 735 728 722 731 737 741 747 728 706 707 710 711 719 721 718 720 725 730 732 735 739 742 746 749 750 752 753 756 758 761 765 768 770 773 776 779 782 783 787 790 793 795 796 799 801 802 804 806 808 811 813 815 816 818 819 820 821 821 822 823 825 826 827 829 830 831 832 833
698 700 703 704 701 698 692 685 687 690 692 696 699 702 707 710 714 726 735 727 720 726 729 733 740 723 705 707 707 706 712 713 713 716 719 725 730 733 739 742 746 749 750 751 753 756 758 759 761 764 767 771 774 778 781 782 786 789 791 794 795 797 800 802 804 806 808 810 813 815 816 818 819 820 821 822 823 824 825 827 828 829 830 831 832 833
694 699 703 704 698 692 688 684 685 686 690 698 699 697 703 708 707 710 719 720 720 726 728 735 741 722 704 706 705 703 707 709 711 713 716 724 731 735 740 742 745 749 751 752 753 753 755 756 759 763 766 770 773 777 779 782 785 789 791 793 795 797 799 802 804 806 808 810 813 815 816 817 819 820 821 822 823 824 826 827 828 829 830 831 832 834
693 697 698 705 709 706 703 700 696 693 695 699 699 697 698 702 702 703 711 717 721 727 725 730 739 724 705 705 705 704 709 712 715 716 718 725 730 734 739 741 744 748 751 752 751 751 753 756 760 763 765 769 773 775 779 782 785 788 791 793 794 796 799 801 804 806 808 810 812 815 816 817 819 820 821 822 823 824 826 827 827 828 830 831 832 834
687 694 693 701 714 718 716 712 705 700 699 698 697 697 697 699 701 704 712 719 726 732 726 723 730 724 711 710 709 708 713 718 720 722 723 726 728 731 735 738 741 745 749 750 749 750 753 755 758 762 765 769 772 775 779 782 785 788 791 792 793 796 799 801 804 806 808 810 812 815 816 817 818 819 821 822 823 824 826 826 827 829 830 831 833 834
682 688 689 693 703 707 705 701 694 693 699 702 700 700 699 699 701 706 714 719 721 727 726 720 721 723 720 719 716 714 718 719 721 724 725 727 729 730 732 735 738 741 745 747 747 750 753 755 758 762 765 768 771 775 778 781 785 788 790 792 794 796 798 801 803 806 808 810 812 814 816 817 818 819 820 822 823 824 825 826 828 829 830 832 833 834
684 689 691 690 692 693 692 690 687 688 696 700 700 702 702 699 702 708 713 714 716 723 726 721 717 720 724 724 718 716 719 720 720 722 723 725 728 730 733 736 738 742 745 746 747 751 754 757 759 762 764 767 770 773 776 780 783 786 788 791 793 796 798 801 803 805 807 810 812 814 815 816 818 819 821 822 823 824 825 827 828 829 831 832 833 835
687 692 692 690 689 688 687 687 685 687 692 695 696 701 703 701 702 705 709 710 712 715 716 716 717 715 719 723 718 714 715 716 717 720 721 724 727 731 735 738 740 742 744 747 750 753 758 760 760 761 763 765 768 771 775 778 781 784 787 790 792 795 798 800 803 805 807 810 812 814 815 817 819 820 822 823 823 824 826 827 828 830 831 832 833 835
689 694 692 688 689 689 689 689 687 687 692 695 696 698 701 702 700 699 703 708 709 708 705 711 718 715 714 719 716 711 711 713 717 720 723 726 730 732 735 737 739 742 745 750 754 758 762 763 761 761 763 765 768 771 774 776 779 782 785 788 791 794 797 800 802 804 807 809 811 814 816 817 819 821 822 823 824 825 826 827 829 830 831 833 834 835
688 696 694 687 690 694 692 690 689 689 692 695 696 697 700 706 705 700 702 707 710 713 711 709 714 716 715 716 716 716 717 718 720 723 725 727 729 731 734 736 738 742 747 753 758 761 763 762 762 763 764 766 768 770 772 775 777 781 784 787 791 794 797 800 802 804 806 809 811 814 816 818 820 821 823 824 825 826 826 828 829 830 832 833 834 835
684 694 693 688 697 702 696 694 693 691 695 699 698 696 699 706 707 702 702 703 703 712 719 713 709 713 716 716 718 722 722 722 724 725 727 729 729 730 733 736 738 742 748 752 755 757 758 757 759 761 762 763 765 768 771 773 776 780 783 787 790 794 797 800 801 804 806 808 811 813 816 818 820 822 823 825 825 826 827 828 829 831 832 833 834 836
685 690 693 694 703 706 701 699 696 697 708 712 703 698 701 705 704 701 701 699 697 705 715 711 703 706 714 717 720 726 728 725 725 725 726 728 730 730 731 733 737 741 745 749 749 750 752 753 754 757 759 760 762 764 768 771 774 778 782 786 790 794 797 799 801 804 806 808 811 813 815 818 820 822 824 825 826 827 828 829 830 831 832 834 835 837
686 688 695 698 703 708 708 703 701 710 720 716 702 699 701 701 700 699 699 697 696 700 704 703 702 707 713 715 716 722 724 721 719 719 720 722 727 730 731 733 736 739 743 746 747 748 750 751 753 755 758 759 761 764 767 771 774 777 781 786 790 793 796 799 802 804 806 809 811 813 815 818 820 822 824 825 827 828 828 829 831 832 833 835 837 838
687 690 697 701 704 709 709 708 716 726 721 706 697 698 700 701 699 696 694 695 698 699 697 702 708 708 708 709 710 712 714 716 717 719 720 720 722 727 732 735 736 738 741 744 745 747 749 750 753 755 758 761 763 766 770 773 775 778 782 785 789 792 796 799 802 804 807 809 811 813 815 817 820 822 823 825 826 827 829 830 831 833 834 836 838 839
688 692 697 703 709 711 711 715 724 725 713 701 698 697 697 700 701 699 700 704 706 700 694 698 707 708 705 707 709 711 714 717 720 722 723 723 723 725 729 733 735 737 739 741 744 745 747 749 751 754 757 761 764 767 770 774 776 779 782 785 788 792 796 799 801 803 805 808 810 812 815 817 819 821 822 824 825 827 829 830 832 834 835 837 839 840
685 692 697 705 712 714 716 719 720 718 714 707 702 700 697 698 698 699 705 710 710 705 700 700 704 708 708 708 711 714 716 720 725 727 725 724 725 726 728 730 732 735 737 740 743 745 747 749 751 754 758 761 764 767 769 773 776 778 782 785 789 792 795 797 799 801 804 807 810 812 815 817 819 820 822 823 825 827 829 830 832 834 836 838 839 841
682 690 697 705 713 715 717 720 721 722 721 713 705 701 696 696 698 696 701 708 708 704 704 702 702 706 709 712 715 716 718 725 731 729 724 724 726 727 730 732 733 735 737 740 744 746 748 750 752 755 758 760 763 766 768 771 775 779 783 786 789 792 793 794 796 800 804 808 811 813 815 817 819 820 821 823 824 826 829 831 833 835 836 838 840 841
688 693 696 703 711 713 713 719 724 724 719 712 705 699 694 696 696 694 701 710 706 702 705 704 704 706 708 711 714 715 719 729 733 725 720 722 724 726 729 733 735 737 739 740 742 745 747 750 753 756 758 760 763 765 768 771 775 779 783 785 787 789 789 789 792 797 802 807 810 812 815 817 819 820 821 823 824 827 829 831 833 835 837 839 840 841
695 697 699 705 713 714 714 721 724 719 713 709 705 700 696 693 691 699 714 716 704 702 706 705 704 706 706 707 711 713 714 719 720 717 716 719 723 725 727 730 733 737 739 741 742 744 746 749 753 756 759 761 763 765 768 771 775 778 781 782 784 784 784 786 790 794 800 806 811 813 815 817 819 820 821 823 825 827 830 831 834 836 838 839 841 842
701 702 707 711 714 716 716 720 723 718 711 706 703 699 695 692 696 710 720 713 701 703 706 703 702 704 705 706 708 707 707 707 708 710 714 717 722 726 727 728 730 733 736 739 742 744 748 751 753 755 758 760 762 764 766 770 774 777 779 781 781 782 783 786 790 794 799 805 810 813 815 816 818 820 821 823 825 828 830 832 834 836 838 840 841 842
706 707 712 712 713 717 718 719 724 722 711 705 703 698 694 699 710 715 711 705 702 703 703 701 702 703 704 705 703 702 706 708 708 710 715 717 721 725 728 729 731 734 736 738 741 744 747 751 754 756 758 761 762 763 765 768 772 775 777 778 779 781 783 786 790 795 800 805 809 813 814 816 818 819 821 823 826 828 831 833 835 837 838 840 841 841
706 708 713 713 714 719 721 722 726 725 716 710 708 703 700 706 711 708 704 704 705 703 702 701 701 702 703 704 704 706 709 711 711 713 717 719 721 724 728 729 731 734 737 739 742 744 746 750 754 756 759 762 764 765 765 767 769 772 774 776 777 779 783 786 790 795 800 805 808 811 813 815 816 818 820 823 826 828 831 834 835 837 838 839 840 841
707 709 711 714 715 717 721 725 728 727 722 716 712 709 708 707 705 703 704 705 704 703 703 701 701 702 702 702 707 711 712 713 715 716 719 722 723 725 728 730 732 734 737 739 742 745 747 750 753 756 759 762 764 766 767 767 768 770 772 774 776 780 783 787 792 796 800 804 807 809 811 813 815 817 820 823 826 828 831 833 835 837 838 839 839 840
712 711 709 715 722 721 722 726 727 725 723 718 714 714 713 708 705 705 704 703 703 703 702 701 702 704 703 704 707 711 713 715 717 718 720 723 724 726 728 731 732 734 737 740 743 745 748 751 753 756 759 762 764 767 768 769 770 771 774 777 780 783 787 790 793 796 800 803 805 808 810 812 814 817 820 822 825 828 830 833 834 836 837 838 839 840
713 711 709 716 724 724 723 725 723 722 721 717 712 715 716 712 709 707 705 704 704 703 702 702 702 703 704 706 708 712 715 716 718 720 722 724 726 728 729 731 734 736 738 741 744 746 749 752 754 757 760 764 766 767 769 770 772 774 778 781 784 787 790 792 795 797 800 802 805 807 809 812 814 817 819 822 825 827 829 832 833 835 837 838 839 839
711 709 711 717 722 723 724 725 723 721 721 716 711 713 717 716 712 710 709 708 706 704 704 704 703 703 705 706 708 713 716 717 719 722 724 725 728 730 731 733 735 737 739 741 743 746 749 752 756 758 760 764 766 767 769 771 773 776 778 779 782 786 790 793 795 797 800 803 805 807 809 811 814 817 820 822 825 827 829 831 833 835 836 837 838 839
713 711 714 719 722 724 725 725 723 722 721 718 715 716 719 719 714 712 711 710 708 706 706 705 704 705 705 707 710 713 717 720 721 723 725 727 730 732 733 735 736 738 740 742 744 746 749 751 754 757 760 763 765 767 769 771 773 775 776 778 781 784 788 791 794 796 800 803 806 808 810 812 814 817 820 822 824 826 828 830 832 834 835 836 836 837
716 715 718 722 726 728 728 726 725 724 723 720 717 717 719 718 716 714 713 711 710 709 708 707 707 707 708 710 713 714 718 722 722 723 726 729 731 733 735 736 737 739 741 743 745 747 749 751 753 755 759 762 764 767 769 771 773 775 777 779 782 785 788 791 794 797 800 803 806 808 810 812 814 816 819 821 824 826 828 830 831 832 834 836 836 837
718 720 722 724 727 729 727 724 723 723 724 723 719 717 718 718 717 716 716 714 713 713 712 710 710 711 711 713 714 716 720 723 723 724 726 729 731 733 735 737 739 741 742 744 747 749 750 752 754 756 759 763 765 767 770 772 774 776 778 780 783 785 788 791 795 798 801 803 805 807 809 812 814 816 818 820 822 825 827 829 831 832 834 835 837 838
721 721 720 721 723 723 720 720 721 722 724 724 722 719 719 719 718 719 719 718 717 716 714 713 713 714 715 715 715 716 718 722 724 725 727 730 732 734 735 737 739 741 743 745 747 750 752 754 756 758 760 763 765 767 770 772 774 776 778 781 783 785 788 791 794 797 800 802 804 806 809 811 813 815 817 819 821 824 826 828 830 832 833 835 836 838
Wind_Speed
5 4 7 8 7 8 9 8 7 6 6 7 6 5 6 5 4 5 4 6 6 5 6 8 9 9 6 7 7 7 9 11 12 11 10 10 10 9 10 10 9 8 7 10 16 21 24 26 24 25 29 31 33 36 38 35 34 34 32 32 32 31 30 29 28 27 27 26 24 22 20 19 17 16 15 13 11 9 10 11 12 13 13 13 11 9
5 7 8 7 6 7 9 8 8 9 9 8 5 5 6 5 6 6 7 8 7 5 6 7 9 10 8 8 8 10 12 12 13 13 12 11 10 9 11 11 9 8 7 8 10 14 19 21 22 24 27 29 30 31 31 33 36 36 34 34 34 32 30 29 28 28 28 27 25 22 20 19 18 16 15 13 12 13 14 15 15 15 14 13 11 9
7 8 7 6 6 5 7 9 10 10 10 8 6 5 4 4 5 7 9 9 6 4 5 7 8 9 7 9 9 9 10 10 11 13 15 15 13 11 12 11 10 9 9 9 8 10 14 19 24 27 27 28 28 26 23 25 31 33 33 34 34 32 30 29 28 27 27 26 24 21 19 19 18 16 14 14 16 17 17 17 16 14 12 11 10 9
6 6 7 7 6 7 7 9 11 9 7 6 6 5 5 4 3 5 6 6 5 5 5 6 6 4 4 7 5 3 5 7 6 6 9 12 14 14 14 13 12 12 12 12 9 9 11 15 20 24 26 25 25 24 22 23 26 29 30 32 32 31 29 29 27 26 26 23 21 19 18 18 16 15 16 17 18 18 18 16 14 11 9 8 9 9
5 5 9 8 8 9 8 8 12 9 6 8 7 6 6 5 7 8 2 2 3 6 8 5 2 1 4 8 5 2 4 6 6 6 6 5 7 9 10 9 10 12 13 14 12 10 10 13 18 23 25 24 23 23 23 25 26 26 27 29 30 30 28 28 27 26 25 23 21 20 19 17 16 18 20 20 19 17 17 14 11 9 6 7 8 9
6 6 11 11 10 11 10 9 12 10 6 8 8 8 9 7 10 9 1 5 3 5 8 7 4 4 5 9 7 4 5 6 5 7 8 6 6 7 8 7 7 9 10 12 14 13 13 15 19 22 23 23 22 22 23 25 26 27 27 27 28 28 28 27 26 25 25 24 24 24 23 21 21 21 20 20 20 17 15 12 10 9 7 7 8 9
5 8 12 14 12 11 11 10 11 12 8 7 6 9 11 10 10 8 2 4 2 4 5 7 8 4 3 5 5 5 6 7 5 5 7 7 7 8 8 7 8 10 10 10 11 11 13 17 18 19 22 23 23 23 24 24 26 27 27 26 27 27 27 27 26 25 24 24 25 26 25 25 26 23 19 19 19 16 14 12 11 11 10 10 11 11
8 12 12 14 13 11 11 9 10 12 9 6 5 7 9 10 11 7 1 2 4 3 5 6 6 3 2 5 4 5 6 6 5 6 7 7 7 8 7 7 9 10 11 11 11 11 13 17 19 20 23 24 24 24 25 24 25 26 26 26 26 27 27 27 26 24 24 25 26 26 25 25 25 24 21 19 18 16 14 13 14 14 14 12 12 12
9 13 13 15 14 10 9 8 8 11 9 7 5 6 7 8 7 4 4 5 4 3 6 5 3 4 1 2 4 6 6 6 8 9 9 8 8 9 8 8 9 10 11 11 13 13 13 16 19 22 23 24 24 25 25 25 25 25 25 26 26 26 26 26 25 24 25 26 27 26 26 25 23 23 23 20 18 16 15 16 17 16 15 13 12 11
9 11 12 14 12 9 9 8 8 11 9 6 6 6 6 5 3 3 5 5 3 3 6 7 4 4 0 2 6 5 4 7 10 9 9 8 8 8 8 9 10 10 10 11 13 13 14 17 18 20 21 22 22 24 25 25 24 24 25 25 25 25 25 25 25 25 25 26 26 26 27 26 24 24 24 21 18 18 17 18 18 17 16 14 12 10
8 9 9 10 10 8 7 7 8 10 9 6 6 6 6 4 1 2 4 2 3 4 6 8 6 5 3 4 6 6 9 13 11 8 9 9 9 9 9 9 10 11 10 10 11 11 15 18 19 19 21 21 22 23 25 24 24 25 25 24 23 23 24 24 24 24 24 25 25 26 27 27 26 26 24 22 20 20 19 19 19 19 17 14 13 10
8 10 8 6 9 10 7 7 8 9 8 5 6 6 3 4 1 1 3 1 4 5 6 8 6 5 4 4 7 12 13 14 15 12 14 15 13 11 11 11 10 10 10 10 10 10 14 17 18 20 22 23 24 25 25 25 25 25 25 24 23 22 23 23 23 23 24 24 25 26 26 27 28 26 24 23 22 21 21 21 21 19 17 15 13 10
6 8 8 6 9 12 10 6 6 8 8 6 5 6 4 2 1 3 4 2 4 5 6 6 5 4 4 6 13 18 14 12 17 16 17 18 16 13 12 12 10 9 10 10 9 10 12 13 16 20 22 24 26 27 27 25 25 26 25 24 24 22 22 22 22 23 24 24 24 25 26 27 27 25 23 22 22 22 22 22 20 19 17 15 13 11
3 5 7 9 9 12 12 8 6 7 8 8 5 6 6 4 3 3 4 2 2 4 6 4 6 4 4 4 12 20 19 16 15 13 16 19 18 16 13 12 11 9 10 9 8 11 11 12 17 20 22 23 25 27 27 24 24 24 24 24 24 22 22 22 22 23 23 22 22 24 26 26 25 24 21 20 22 23 22 20 19 18 16 14 13 11
6 5 8 11 7 11 14 10 7 5 6 8 5 6 5 5 5 3 3 4 3 4 4 2 3 4 4 3 10 18 16 10 11 10 12 13 12 12 10 9 10 10 9 8 8 9 10 14 20 21 21 22 24 27 26 24 23 23 23 24 23 23 22 22 22 22 21 21 22 24 25 25 24 22 20 20 22 23 21 20 18 17 15 14 12 9
8 5 6 9 6 12 15 9 8 6 4 6 4 5 5 5 5 2 3 6 4 3 3 1 2 4 5 2 2 6 8 9 12 12 11 10 8 9 8 8 10 10 9 8 7 8 9 14 20 21 21 22 23 26 25 24 24 23 23 24 24 24 22 22 22 22 22 23 24 24 25 25 24 23 23 23 23 22 21 19 18 17 14 11 9 11
7 4 5 9 8 14 16 11 9 8 5 5 4 5 6 6 6 3 3 2 5 4 3 1 2 5 1 3 7 9 13 11 13 13 13 13 11 10 10 9 10 9 10 9 8 9 9 13 17 18 21 22 22 25 24 24 25 24 24 25 25 24 24 24 24 24 25 25 25 24 25 25 25 24 24 23 23 23 20 18 17 15 13 12 13 17
6 3 6 12 10 12 15 12 10 8 6 5 5 6 4 4 3 4 3 1 4 4 3 1 4 4 0 0 4 7 12 10 12 14 12 12 12 12 11 10 10 9 9 10 10 9 9 12 15 17 20 22 23 25 24 23 25 26 25 26 27 26 26 26 26 26 26 26 27 26 25 25 24 24 23 23 23 21 20 19 17 14 15 18 19 19
4 2 5 11 12 9 11 12 9 8 6 5 5 6 5 4 2 1 3 2 3 3 3 2 3 3 2 4 3 7 11 12 12 13 13 14 14 13 11 11 10 9 9 9 10 9 9 12 16 18 20 22 24 25 24 23 25 27 26 27 27 27 27 28 28 28 28 27 27 26 24 24 23 23 22 22 21 20 20 18 15 16 20 20 18 17
1 3 3 10 12 7 7 8 8 8 5 3 5 5 4 4 4 2 3 4 4 4 3 2 2 3 4 7 10 12 12 14 15 14 15 17 17 14 12 12 11 10 10 10 10 10 10 13 19 21 21 22 24 24 24 25 27 28 27 27 28 27 28 29 29 28 27 26 26 24 23 22 21 22 21 20 20 18 17 14 15 20 21 18 16 14
1 2 3 7 8 7 5 6 8 8 5 4 5 5 4 3 2 2 2 3 4 4 4 2 2 5 5 5 12 15 14 16 18 17 15 15 15 14 12 12 11 11 11 10 10 11 11 14 18 20 20 21 24 24 24 26 28 28 27 27 29 30 29 29 28 28 27 25 24 24 22 21 21 20 19 19 18 15 14 16 20 22 18 15 13 10
2 1 3 5 6 6 5 4 7 8 6 6 5 4 6 5 3 3 2 2 2 4 4 5 3 6 5 4 10 14 15 16 17 17 15 14 16 14 12 12 13 12 12 11 12 11 10 12 16 20 21 22 24 23 24 27 29 28 28 29 31 31 30 29 28 27 26 25 24 23 22 21 20 19 19 18 15 15 18 22 22 18 13 11 10 11
4 2 4 4 4 6 5 6 10 10 6 5 5 4 5 5 5 6 4 3 1 1 1 4 3 6 5 3 7 11 14 16 16 16 16 14 15 13 12 13 13 12 11 11 12 11 10 15 20 23 23 23 23 24 25 28 29 28 28 29 31 31 30 29 28 27 26 25 24 23 22 21 20 19 19 17 16 20 23 22 17 12 10 12 15 19
4 2 4 3 2 3 3 2 5 7 5 3 3 2 5 5 5 6 4 4 4 2 1 4 2 6 5 3 5 11 14 14 14 14 14 13 11 11 13 14 13 12 11 10 12 11 12 16 19 19 21 21 22 24 26 27 27 27 28 29 31 31 30 29 28 27 27 26 25 23 23 22 20 20 19 17 19 24 23 16 12 12 14 19 22 23
5 2 4 6 4 4 3 1 0 4 4 4 3 2 4 6 6 5 2 2 2 3 5 6 3 6 6 5 3 11 13 12 10 9 10 12 11 11 11 13 13 13 12 12 13 13 12 14 14 15 19 21 22 23 25 26 27 27 27 29 30 30 30 29 28 28 27 26 26 24 23 23 22 22 19 18 22 24 18 13 14 17 20 22 23 22
4 3 3 6 7 7 7 4 5 6 3 3 2 2 4 6 8 6 2 3 1 3 4 6 4 5 5 5 5 9 10 9 8 7 7 8 11 12 12 13 13 14 13 14 15 14 12 12 12 14 18 21 23 23 24 25 26 27 27 28 30 30 30 29 29 28 27 27 26 25 25 24 23 21 18 19 24 22 15 14 18 21 22 21 21 21
2 1 2 7 7 7 6 2 3 6 5 4 3 2 4 5 7 6 5 4 4 3 2 4 5 2 4 4 7 9 10 11 10 9 9 9 10 12 13 14 14 14 14 16 15 12 11 11 12 15 19 22 23 24 24 25 26 27 27 27 29 30 30 29 29 29 28 28 27 26 26 24 22 20 19 22 24 19 15 17 21 22 21 20 20 20
2 2 1 6 7 4 4 3 3 6 6 7 5 3 6 6 7 8 5 5 4 5 2 7 4 7 1 2 8 10 10 11 12 13 13 12 12 11 11 12 14 14 14 14 14 12 11 10 11 15 19 23 24 24 25 26 27 28 28 28 29 30 30 30 30 29 29 28 27 26 25 23 21 21 22 23 22 17 17 21 22 21 21 19 18 18
3 1 3 4 5 2 1 2 5 7 5 7 7 4 5 6 9 7 5 6 6 6 6 7 5 7 6 6 10 13 13 13 13 12 11 10 11 10 11 13 14 14 15 15 14 11 9 8 11 15 19 23 26 26 26 27 28 28 28 29 30 31 31 31 30 29 29 27 26 26 24 23 23 22 23 22 18 16 20 23 22 21 20 18 17 18
3 1 4 2 5 5 5 2 5 8 6 5 6 6 5 6 8 8 5 6 7 5 6 7 6 3 3 7 9 9 10 11 10 9 10 11 12 12 14 15 14 14 14 12 9 8 8 7 11 15 18 22 26 26 26 27 29 29 29 30 31 31 31 31 30 29 28 26 25 25 24 23 23 23 23 20 16 19 23 24 23 22 20 18 18 19
2 2 4 2 5 4 6 4 3 8 8 6 5 5 4 6 5 4 4 5 4 1 3 7 8 2 1 3 4 3 5 9 10 11 12 12 13 14 14 14 13 13 12 11 11 11 11 12 13 13 16 21 26 27 27 27 29 30 30 31 32 32 32 31 30 28 27 26 25 25 24 23 23 24 21 17 18 23 26 25 23 22 20 19 20 22
3 0 2 5 5 2 4 3 2 6 6 4 6 8 3 6 3 3 3 5 5 4 2 6 7 3 3 4 6 5 6 10 12 12 12 10 12 15 15 14 13 13 13 14 14 15 16 16 15 14 17 23 27 28 27 28 29 29 30 31 31 31 30 29 29 27 26 26 25 25 25 23 23 23 18 15 20 26 27 26 24 22 21 21 22 24
2 2 1 4 4 2 5 3 2 6 6 2 7 7 5 4 3 2 2 3 6 7 6 5 5 6 6 8 9 6 6 10 11 12 12 11 12 14 15 15 14 13 14 15 16 17 17 16 18 20 22 25 29 30 30 31 31 30 31 31 31 31 30 28 27 26 26 26 25 24 24 24 24 22 16 16 23 28 27 26 24 22 22 22 23 24
2 5 2 2 4 2 6 4 4 6 3 6 6 5 5 4 6 6 4 6 6 6 5 4 4 7 10 10 12 12 11 12 13 12 12 13 12 12 13 14 14 14 15 15 15 15 14 14 19 23 25 26 29 31 31 32 32 32 32 32 31 30 29 28 27 26 26 26 25 25 25 25 25 20 16 20 27 28 26 26 25 23 22 22 23 25
3 5 2 2 4 2 3 5 5 5 6 6 5 4 5 6 8 8 4 4 4 6 8 7 6 11 13 10 11 14 13 10 9 9 10 12 13 13 13 12 12 14 14 15 15 14 13 15 19 22 23 24 26 28 29 29 31 32 32 33 32 31 29 28 27 27 26 26 26 26 26 27 25 20 18 24 29 28 27 27 25 24 22 22 24 25
4 4 2 2 3 2 3 4 4 6 5 6 7 5 2 1 5 6 2 4 4 2 7 10 9 9 10 8 7 8 7 6 6 4 6 9 10 12 13 12 13 14 13 14 15 15 16 21 24 25 25 24 26 28 27 28 30 32 31 32 32 30 29 28 27 27 27 26 26 26 27 28 25 20 22 28 30 28 28 27 25 24 23 22 24 25
6 5 3 2 2 3 4 2 1 1 2 4 4 3 1 1 2 6 4 2 5 4 0 8 11 7 6 6 6 7 7 8 5 1 3 6 8 9 11 12 13 14 13 16 19 20 22 25 27 27 27 27 27 28 28 30 32 32 31 30 30 30 29 28 27 26 26 25 25 26 27 27 24 22 26 30 30 28 28 27 25 25 23 23 24 25
6 5 4 3 1 2 4 2 2 2 1 4 5 5 4 3 4 6 6 1 4 5 5 4 11 10 7 7 8 8 8 7 4 4 5 6 8 7 7 8 10 13 15 18 20 20 22 25 27 29 30 29 28 28 31 33 33 32 29 28 28 29 28 27 25 24 23 23 26 27 27 24 23 24 29 31 29 29 28 27 26 25 23 24 25 25
8 4 4 5 2 2 5 3 1 2 3 5 6 8 7 4 3 6 5 2 5 4 5 1 8 10 10 11 10 9 8 5 5 6 6 7 8 9 9 9 9 12 17 22 24 24 24 27 28 28 29 29 28 29 32 33 33 33 30 29 30 30 28 28 27 26 26 26 28 28 26 23 23 27 30 30 29 29 28 28 27 25 24 24 24 24
6 4 4 4 2 2 4 2 1 2 2 4 5 7 9 3 5 7 3 6 6 4 3 4 9 9 11 13 11 9 8 6 7 6 6 8 7 8 11 12 13 14 17 21 26 27 28 28 27 26 26 26 27 30 32 33 33 32 31 31 32 31 29 30 30 28 28 27 27 27 24 24 26 29 31 30 30 29 29 28 27 26 25 24 24 24
4 3 3 3 3 2 4 2 1 2 3 4 5 6 6 3 6 5 6 8 5 5 4 6 10 8 9 12 10 7 6 5 5 6 8 9 9 8 9 13 19 21 22 24 26 26 25 25 26 26 26 27 29 32 34 34 32 29 29 30 28 26 28 30 29 28 27 27 26 25 24 25 29 30 30 30 30 29 29 28 27 27 26 25 24 23
2 2 2 1 2 1 3 3 0 2 2 3 5 5 3 3 2 4 6 5 4 5 3 6 9 7 7 9 7 5 4 4 7 10 9 9 10 9 8 11 15 18 20 23 26 28 26 23 23 24 24 25 29 32 35 34 30 27 27 26 24 25 27 29 29 28 27 27 26 25 25 28 31 31 31 31 30 30 29 28 28 27 26 26 24 23
2 2 1 2 3 2 3 3 1 2 3 6 7 5 4 3 5 6 1 1 3 3 0 5 6 6 7 6 4 5 7 8 10 10 8 8 10 10 10 12 14 14 17 21 23 27 28 24 22 22 22 23 26 29 32 33 29 26 25 23 24 26 28 27 28 27 27 26 26 27 29 32 33 33 32 32 31 31 30 29 29 28 26 26 25 23
1 1 2 2 1 2 3 1 1 4 5 7 4 0 1 1 4 5 3 1 1 1 1 4 4 4 7 8 7 8 8 9 10 10 8 8 9 9 10 11 14 16 19 21 22 25 27 26 23 23 23 24 25 25 26 28 27 26 25 23 24 26 27 27 27 26 26 27 28 30 32 34 34 34 33 33 32 32 31 31 29 28 27 25 25 25
1 1 3 3 1 2 4 3 3 4 6 4 5 3 5 5 3 1 3 3 1 1 1 3 4 4 5 9 10 9 8 9 9 9 9 8 9 9 10 11 15 18 20 21 23 25 25 24 25 25 23 23 24 24 23 23 24 22 19 19 22 25 26 26 26 26 28 30 32 33 34 34 34 35 34 34 33 32 32 31 30 29 28 26 26 27
2 2 2 3 2 2 3 0 1 2 4 4 7 7 7 6 5 4 4 3 2 2 2 4 6 5 5 7 9 8 8 9 9 9 8 9 8 8 9 10 14 18 21 20 21 23 23 22 23 23 22 22 23 24 23 22 21 19 16 18 22 24 24 25 26 28 30 32 33 34 34 34 34 34 35 34 33 32 32 32 31 30 29 27 27 27
4 4 4 4 3 2 2 3 3 3 4 4 8 7 7 7 6 5 5 4 3 3 4 4 5 6 6 7 9 8 8 9 10 9 8 9 8 8 9 9 12 16 20 21 22 23 23 22 21 21 22 22 23 24 23 22 21 21 22 24 25 26 26 27 29 30 31 32 33 33 34 34 34 34 35 34 32 32 32 31 31 30 29 28 28 27
3 4 4 4 3 2 2 4 4 2 3 2 4 4 2 5 6 7 5 5 5 6 5 4 4 5 5 6 8 10 9 8 10 10 9 8 8 8 8 9 13 16 18 21 24 25 24 23 23 22 22 22 22 23 24 24 25 27 28 28 29 30 31 30 31 32 32 32 32 32 32 34 35 35 34 33 32 32 32 32 32 30 29 29 29 28
2 3 2 3 4 3 1 2 2 1 4 4 4 4 2 3 5 7 7 8 8 8 7 7 6 5 5 6 7 9 9 7 8 10 10 8 8 8 9 11 15 18 19 20 22 24 23 23 23 24 23 22 22 24 25 26 28 29 29 28 29 30 30 30 31 31 31 31 32 31 31 33 34 35 34 32 31 32 32 32 31 28 27 28 28 27
2 2 2 4 4 2 2 4 4 4 3 3 3 5 4 4 6 8 8 9 9 8 7 7 7 6 6 7 7 9 9 6 6 9 10 9 9 10 12 14 16 18 20 22 21 21 22 22 23 23 22 21 23 25 25 27 28 28 27 28 29 30 31 32 31 31 30 31 31 31 32 33 34 34 33 32 32 31 29 29 29 27 27 27 27 25
1 1 3 5 4 4 5 5 4 4 3 1 2 5 5 4 7 8 7 7 7 7 6 7 7 7 6 5 6 10 11 8 7 9 8 7 9 13 16 18 18 18 21 24 23 21 20 21 22 22 22 23 25 26 27 27 27 27 27 28 30 32 34 34 32 30 30 30 31 32 34 35 34 33 32 32 32 31 29 27 26 27 28 28 27 25
Wind_Direction
156 193 214 206 208 205 201 190 188 213 215 202 203 218 222 214 236 231 219 239 214 202 232 215 218 224 178 151 148 133 123 124 133 138 145 153 149 151 155 156 159 155 162 161 153 157 166 170 170 169 169 171 174 175 173 174 177 176 174 172 171 174 177 176 176 178 181 180 177 176 177 180 185 192 194 188 182 168 149 135 124 121 119 117 116 116
168 207 221 203 198 203 197 184 188 216 229 229 217 221 233 222 234 233 225 236 208 189 237 219 216 222 179 157 161 145 136 142 150 151 157 159 152 157 159 156 156 149 152 153 148 155 164 167 166 166 169 173 176 176 177 178 176 174 171 171 171 174 177 178 178 179 181 182 181 178 178 182 183 186 190 181 159 138 128 124 123 121 118 118 113 103
202 218 210 191 197 201 193 187 198 219 225 232 228 217 234 228 239 247 237 238 204 177 240 220 213 223 179 154 165 158 148 158 168 165 165 161 157 165 165 158 156 146 147 156 155 156 162 166 165 166 172 177 177 177 182 182 175 169 167 169 171 173 178 180 181 180 181 183 185 185 183 184 181 179 180 165 142 133 127 123 122 123 121 117 101 87
208 213 189 186 197 201 204 194 199 223 229 229 225 207 230 232 223 242 244 245 216 198 222 201 201 221 137 126 150 156 134 140 153 163 162 161 163 168 167 161 158 151 150 160 163 153 157 165 165 167 171 175 175 176 182 181 174 169 167 168 170 174 179 181 182 183 183 182 183 184 181 181 176 165 157 146 135 133 130 126 127 128 122 111 91 79
215 180 171 190 207 203 211 200 197 215 229 232 227 204 220 226 222 234 254 327 261 241 231 187 124 277 155 149 157 124 104 116 126 136 147 165 156 150 153 153 153 151 153 161 162 154 153 162 168 169 170 172 173 175 179 176 173 170 168 170 172 175 179 182 184 186 185 181 175 171 168 166 161 152 146 142 138 136 135 133 132 126 114 105 91 85
226 182 169 193 214 207 211 210 201 199 213 241 231 207 217 221 231 240 31 36 344 270 239 178 144 278 220 169 165 161 140 129 141 152 155 162 146 143 149 143 140 144 155 163 160 158 157 162 167 168 168 170 171 171 172 170 170 171 172 174 175 177 180 184 187 188 185 178 172 168 163 159 155 153 152 149 145 143 141 137 128 118 111 112 105 99
213 191 176 193 208 210 216 219 208 193 199 239 209 190 216 225 236 243 73 55 261 257 252 190 178 243 248 189 179 175 151 137 153 166 161 163 160 162 158 147 146 149 158 164 157 156 160 163 164 162 166 170 169 166 166 166 168 170 172 175 177 179 182 186 187 185 182 176 172 171 169 165 160 157 156 154 150 147 141 134 128 121 117 114 109 105
188 190 185 192 200 212 218 218 210 194 196 230 196 178 209 224 234 240 179 213 230 268 291 230 181 127 193 217 176 145 136 137 174 182 173 175 170 167 158 150 154 156 161 158 155 160 165 168 166 162 167 171 167 163 162 163 166 169 171 174 178 181 184 186 185 183 181 177 173 172 170 165 162 159 156 154 150 145 139 133 130 126 119 111 107 105
180 194 189 188 198 212 214 213 202 191 205 229 218 207 212 218 222 205 205 238 251 295 293 252 172 106 220 244 122 135 150 170 198 199 187 182 176 171 159 153 154 159 166 159 158 165 169 171 168 162 164 167 164 162 162 163 165 169 171 174 179 183 184 184 184 183 182 180 176 172 167 163 161 158 155 151 148 145 141 136 133 128 120 114 108 104
181 201 191 186 201 209 204 214 196 189 213 216 211 239 245 235 216 180 211 231 222 239 259 246 197 112 138 203 148 149 188 200 203 201 193 182 178 176 163 158 157 160 168 164 162 165 164 165 162 158 158 161 162 163 162 163 166 169 171 174 179 183 185 183 183 183 182 182 179 173 168 163 158 153 151 150 149 147 143 138 135 129 123 118 112 107
190 198 200 192 201 197 191 213 201 195 209 190 191 241 272 284 262 204 229 190 171 234 251 241 209 130 151 209 175 180 201 195 186 185 189 184 176 173 169 165 164 167 171 167 162 155 150 150 152 152 152 156 161 163 163 164 167 170 172 174 177 182 185 182 182 184 183 182 179 175 172 166 158 153 152 153 153 151 147 140 134 128 123 119 114 111
207 194 204 198 191 182 182 211 210 204 208 189 185 202 250 301 329 244 267 143 175 239 257 237 204 140 167 203 203 218 215 186 174 179 184 183 178 173 173 173 171 173 172 167 159 148 144 146 153 155 154 157 161 163 166 166 168 171 173 173 173 177 182 181 182 183 181 180 177 175 173 167 160 157 157 160 158 155 149 141 134 128 122 116 110 106
227 211 200 185 189 186 184 202 209 210 210 202 186 168 178 249 228 213 234 206 200 233 255 227 180 174 228 212 203 215 220 195 186 183 175 176 177 174 174 174 173 175 174 170 161 154 154 156 161 161 159 160 161 164 168 168 168 170 172 173 171 173 178 179 179 180 178 177 176 175 172 167 161 160 163 166 162 157 149 143 137 128 121 115 107 102
219 252 209 187 191 190 188 191 199 207 203 201 191 160 171 189 178 211 222 212 212 227 249 223 167 187 260 243 202 205 211 202 188 179 172 174 175 173 173 170 170 176 175 173 166 163 165 163 164 165 162 160 160 163 167 168 168 168 170 172 171 173 177 176 175 177 176 176 176 173 169 164 160 163 168 169 163 157 150 145 136 126 121 115 109 103
186 236 211 193 181 182 193 196 184 171 180 203 190 136 163 175 160 197 203 182 202 226 266 278 156 174 195 232 213 204 206 182 153 157 169 172 171 165 161 159 166 176 176 175 173 171 170 165 166 166 161 157 158 161 165 169 169 167 169 172 171 171 174 174 174 176 174 171 169 166 165 162 162 167 168 163 161 157 151 144 133 124 122 116 112 106
191 224 206 194 177 173 189 197 171 148 171 205 168 138 188 186 150 154 188 177 166 185 270 283 201 209 191 282 304 164 140 115 131 145 155 164 165 157 159 164 170 178 177 175 174 172 171 169 168 166 160 155 155 158 164 169 169 167 167 170 170 170 170 169 169 168 166 163 162 164 165 164 164 165 162 156 155 154 150 143 133 125 119 114 116 115
184 242 205 188 192 182 183 190 184 175 177 182 164 180 199 164 134 122 195 185 98 136 241 241 232 288 275 353 8 93 113 118 135 146 158 166 165 166 176 179 176 178 175 174 176 172 168 167 167 163 158 156 155 157 163 167 167 166 164 165 167 167 163 162 162 160 161 161 161 164 164 163 163 162 157 152 150 148 144 139 132 124 110 109 119 123
157 254 228 186 195 197 182 184 202 197 173 168 192 202 180 146 124 102 150 333 68 141 259 261 193 269 299 76 355 86 117 135 145 149 160 165 168 177 185 182 177 175 173 171 169 165 158 159 162 158 157 159 159 160 162 163 163 163 163 164 165 162 159 159 159 157 159 161 161 161 161 161 161 159 155 151 147 144 140 135 129 119 115 118 121 125
151 200 240 189 189 200 180 178 208 225 203 180 187 187 165 169 210 77 150 178 116 158 266 304 232 248 175 172 175 138 145 154 153 154 162 170 180 185 182 178 172 165 171 171 161 159 156 157 161 158 156 159 161 162 162 159 159 162 165 165 163 159 158 159 158 157 158 161 161 160 159 159 158 157 153 149 146 143 140 136 129 126 127 126 127 131
190 137 201 196 182 175 176 182 199 218 219 156 154 175 164 150 172 184 169 162 148 167 210 281 313 275 225 189 172 170 168 161 160 169 176 180 185 184 177 173 167 165 176 172 158 158 160 163 166 162 158 159 160 161 161 158 158 162 165 163 159 157 157 158 159 159 159 162 161 158 157 157 156 155 152 150 148 145 143 143 140 136 132 130 135 140
284 132 171 195 172 157 186 199 189 189 184 156 164 180 170 148 160 165 163 154 137 147 173 179 279 269 254 198 170 169 172 172 174 176 179 182 183 183 176 167 165 171 176 169 159 163 167 166 163 159 158 157 156 159 160 157 157 161 163 160 157 157 157 158 159 160 160 160 160 158 157 156 155 153 152 152 152 149 147 145 142 138 135 138 146 149
226 182 153 178 178 176 188 166 161 173 168 158 175 189 171 166 141 126 209 257 120 136 167 160 203 262 267 203 174 169 172 182 182 173 173 180 181 179 172 165 167 173 173 167 163 165 165 159 155 158 161 158 156 159 159 157 159 162 161 159 157 157 159 160 159 160 159 158 159 159 157 156 154 153 153 151 149 147 143 140 139 140 144 154 160 156
200 133 139 176 188 185 182 145 152 168 154 143 180 196 160 152 128 128 190 242 146 140 162 125 168 257 265 214 182 176 176 181 181 175 173 176 176 171 164 162 166 172 172 163 159 161 164 164 164 164 162 159 158 160 158 157 160 162 160 158 157 157 159 161 160 160 160 159 160 159 157 156 154 153 153 148 144 144 142 140 141 144 152 156 152 147
203 154 142 151 121 165 189 90 131 158 141 143 211 192 142 158 156 145 169 186 170 192 130 105 200 255 282 292 197 182 180 177 178 177 169 163 164 160 159 160 163 167 165 156 157 166 169 167 165 160 159 159 159 159 158 158 159 160 159 158 156 157 159 160 160 159 159 159 157 157 157 156 155 155 153 147 147 147 145 142 140 141 146 148 145 143
210 215 127 127 122 149 171 22 254 203 174 163 201 198 163 161 149 148 143 106 161 217 158 137 219 251 287 320 179 172 174 171 169 165 156 154 156 156 158 160 159 160 160 158 163 169 165 161 160 157 157 157 157 158 158 158 159 158 158 158 157 157 158 159 160 159 159 158 157 157 158 156 157 156 152 152 154 151 145 137 137 143 147 147 145 145
179 185 122 138 157 168 174 191 205 195 178 159 161 187 188 156 146 164 160 92 198 238 156 146 203 253 308 360 109 143 150 146 138 127 131 148 157 158 160 160 160 160 161 165 169 170 163 157 156 153 152 154 157 158 158 158 158 158 158 159 158 158 158 159 161 160 160 160 159 160 160 159 160 159 159 161 158 152 142 137 142 147 150 149 148 147
124 168 115 134 156 177 179 197 172 143 140 167 178 226 225 174 131 117 117 148 191 185 179 215 191 145 356 26 105 128 141 141 140 140 143 154 163 166 164 162 161 162 165 169 172 170 159 151 148 147 151 155 157 158 158 159 159 158 158 158 158 159 159 160 163 163 163 163 163 163 163 163 163 162 165 164 158 152 145 144 147 149 149 150 150 149
105 312 307 134 144 175 186 187 146 115 128 162 169 236 236 187 121 100 136 190 163 124 224 260 192 129 157 195 139 142 151 151 156 162 163 166 167 164 158 156 159 162 165 171 173 167 154 145 143 148 155 157 157 158 159 158 159 159 158 158 158 160 162 163 165 165 165 165 165 165 165 165 162 159 160 160 159 156 151 149 150 151 150 151 150 147
123 256 259 156 123 80 6 184 147 114 123 161 161 188 219 179 138 134 180 195 153 146 210 233 184 150 176 187 161 157 162 162 164 164 159 158 156 150 150 157 163 166 167 172 173 158 137 137 149 156 160 160 159 160 159 157 158 159 159 160 161 163 165 167 167 166 166 166 165 165 165 163 160 159 161 162 162 157 152 151 151 150 150 151 148 145
119 234 257 162 92 39 359 326 151 129 127 155 167 185 187 163 156 160 177 175 161 178 194 173 157 148 172 180 173 164 160 155 150 146 146 151 154 155 160 163 167 169 165 162 147 114 108 141 165 163 161 161 162 162 160 159 159 160 160 161 163 166 168 168 167 166 165 165 164 163 162 159 161 166 168 166 163 156 152 152 151 149 148 147 146 144
121 237 259 90 71 9 351 349 163 148 148 170 209 230 171 126 143 171 158 137 129 213 203 140 126 98 270 170 133 92 121 133 138 148 154 159 161 162 165 166 167 165 149 125 110 117 142 168 174 168 163 165 165 164 164 162 160 160 161 163 165 167 168 168 167 165 163 162 161 160 159 158 164 171 170 165 160 156 153 152 150 148 146 144 143 143
101 223 305 62 70 335 336 347 175 135 123 159 224 246 204 125 142 208 191 162 152 163 140 109 121 174 214 133 101 94 133 141 146 153 156 161 166 165 167 168 167 159 141 130 136 154 170 175 174 174 173 169 167 167 166 163 161 161 163 164 165 166 166 166 164 162 160 159 159 159 159 161 169 174 170 161 158 155 153 152 149 147 145 143 144 144
109 106 26 74 96 279 314 329 128 99 87 220 235 226 197 147 152 186 231 202 165 148 146 158 185 192 164 134 121 124 149 153 156 161 160 165 171 171 170 168 165 158 150 150 160 171 177 176 175 178 178 173 169 168 168 165 163 164 165 164 164 163 163 163 161 159 158 157 159 159 159 165 174 177 172 161 157 154 153 152 149 147 146 145 146 146
76 101 118 91 113 237 311 357 87 107 152 236 237 197 177 169 156 161 206 211 176 149 145 169 184 156 147 151 151 156 172 176 172 172 168 165 167 172 174 170 165 162 159 161 170 176 178 176 177 179 179 177 173 169 168 166 164 164 164 162 162 162 161 159 158 158 157 157 160 159 161 169 175 176 171 162 156 153 153 152 149 148 148 148 149 148
63 82 111 66 105 169 338 46 109 172 221 247 273 254 215 191 160 161 203 231 172 138 122 120 152 161 157 162 165 166 174 174 161 164 172 171 167 166 169 171 168 166 165 166 173 178 177 176 178 179 179 177 171 166 165 164 162 160 160 160 160 160 159 158 157 158 159 160 162 161 165 173 179 177 170 161 156 154 153 152 150 150 150 152 153 151
102 95 111 73 95 129 45 73 152 211 257 295 314 308 284 107 121 132 104 350 357 94 135 147 170 177 158 151 156 156 148 128 112 125 166 176 171 164 166 171 173 171 169 168 173 179 179 178 178 177 176 172 167 164 162 161 159 157 156 158 159 158 158 158 157 159 163 165 167 168 173 179 183 179 167 160 156 155 153 153 152 152 153 153 153 152
114 109 86 56 83 124 111 109 230 282 324 325 324 312 310 42 142 144 133 331 327 340 10 165 167 168 155 138 126 118 108 98 93 95 190 181 176 171 170 171 172 170 167 168 174 178 179 178 177 175 172 168 165 163 160 159 160 157 155 157 158 158 159 160 159 161 166 167 170 174 179 183 184 176 164 160 158 156 155 155 154 155 156 155 154 154
93 111 122 110 84 90 101 78 18 61 207 258 267 275 272 233 192 144 119 280 296 341 339 195 167 158 143 123 118 120 109 103 140 217 226 193 167 154 151 156 164 164 161 164 169 172 174 175 174 172 170 167 164 162 161 162 159 154 154 157 158 159 160 159 158 162 168 171 175 179 183 187 185 172 163 161 160 158 157 157 157 158 160 159 156 155
58 71 101 98 65 60 99 102 114 151 214 244 252 277 284 248 173 118 106 259 279 335 349 192 162 153 143 137 139 136 121 129 200 225 219 188 164 145 142 145 156 162 162 165 167 170 173 175 173 171 170 166 162 161 163 161 156 155 160 163 162 162 161 159 163 170 175 180 183 184 186 189 182 171 165 164 163 161 160 159 158 160 163 162 159 156
45 35 49 70 57 73 99 95 215 191 243 260 249 273 284 279 93 99 163 244 266 311 321 169 162 162 153 146 147 148 147 172 209 213 188 170 155 144 148 153 159 162 164 167 172 174 173 172 169 167 168 166 161 161 162 160 158 162 167 167 166 166 163 164 172 177 178 182 186 186 188 188 179 171 168 166 165 163 162 161 160 161 162 162 160 158
47 43 61 101 96 82 103 103 293 260 265 261 252 271 292 348 75 112 207 235 259 293 276 180 166 169 159 152 157 171 186 194 178 157 154 154 146 141 149 156 160 164 165 168 171 170 168 168 168 168 170 169 164 163 164 163 163 167 169 168 168 166 164 168 175 177 177 182 187 188 189 186 178 173 171 169 166 164 163 163 164 164 162 161 160 158
74 48 28 126 131 97 112 115 3 283 267 275 281 299 347 62 147 210 226 234 259 288 277 161 156 158 155 159 163 159 159 151 133 132 142 151 147 141 141 146 152 159 162 162 164 163 161 164 167 167 169 170 166 166 167 167 168 169 169 170 168 166 168 172 175 177 180 184 188 188 186 181 178 175 172 170 168 165 163 165 166 165 164 163 161 158
147 128 325 222 183 118 79 75 100 203 282 324 324 330 27 104 196 215 234 336 289 292 76 125 137 150 150 141 112 106 119 124 126 130 137 143 141 139 144 147 145 148 152 154 160 163 160 159 163 165 165 167 169 170 171 171 169 169 171 172 170 170 173 174 174 178 183 186 186 185 182 178 176 174 171 170 169 166 164 165 166 166 167 166 163 159
93 159 191 198 173 104 106 124 206 209 268 318 353 69 307 288 204 185 145 85 350 323 105 102 105 148 150 130 112 113 122 126 130 134 135 139 141 140 143 145 143 145 151 155 160 163 161 159 161 163 165 167 170 172 173 172 171 172 175 174 171 172 173 173 176 181 184 184 182 180 178 176 173 172 170 169 169 167 166 166 167 168 170 169 166 162
16 245 166 132 62 108 143 190 235 242 272 325 42 36 330 343 9 109 130 115 59 358 83 97 89 96 122 125 124 125 128 134 138 139 141 144 146 143 142 146 147 149 153 156 159 163 164 162 161 161 162 166 168 170 174 177 177 174 170 166 169 172 173 174 179 182 180 178 176 175 173 171 169 170 170 170 171 170 168 168 169 169 169 170 167 162
347 354 105 107 104 99 96 89 277 313 329 13 47 25 345 350 9 26 56 59 12 353 53 91 98 93 101 119 125 127 139 145 140 139 142 141 139 140 140 143 148 150 151 153 157 160 159 156 155 155 155 162 169 173 179 184 180 168 160 166 174 177 178 180 181 178 174 172 171 171 170 167 167 169 170 171 174 174 172 172 171 170 170 170 167 162
341 22 70 94 111 106 64 308 308 12 13 33 55 34 345 337 360 23 38 22 357 21 48 65 87 93 100 117 124 129 142 145 138 137 142 139 138 145 146 144 148 154 155 156 157 157 153 151 153 156 159 165 174 178 179 180 176 170 172 179 181 180 184 187 181 173 170 170 169 168 168 166 166 167 169 172 175 175 174 175 175 172 171 170 167 162
337 28 64 84 79 98 187 247 275 331 336 354 72 75 313 320 0 20 22 18 21 27 27 30 57 81 95 115 130 137 145 149 145 142 142 141 143 149 152 151 152 156 159 161 160 160 159 159 161 162 164 168 172 175 174 173 175 178 181 183 184 183 184 183 176 169 169 169 167 166 167 166 165 167 169 172 175 174 174 176 177 177 177 175 171 167
323 27 59 94 75 71 127 217 243 350 358 2 48 71 347 337 16 23 18 23 29 22 19 27 41 69 105 123 130 133 138 148 149 142 140 143 146 150 155 157 156 156 158 162 165 166 166 166 165 164 166 168 170 171 171 173 178 184 185 184 184 181 176 172 169 167 166 166 166 166 166 165 166 169 170 171 172 174 175 178 181 182 182 180 179 175
52 62 80 97 99 128 202 204 180 137 86 28 34 42 23 27 50 41 24 22 22 12 12 30 37 51 92 120 130 128 130 138 145 142 142 148 152 154 156 157 156 157 158 161 165 167 166 167 168 166 165 167 167 167 169 174 181 186 187 184 181 176 171 168 166 165 164 165 166 166 165 165 167 171 172 171 171 172 173 177 182 184 183 182 183 181
56 169 155 134 150 201 213 201 171 131 124 157 59 53 45 53 64 55 32 19 17 10 19 42 49 53 73 100 125 132 134 140 144 141 139 144 152 155 158 159 160 161 162 163 165 167 168 169 168 165 163 166 167 167 169 175 180 185 186 183 179 175 171 168 164 163 164 166 166 166 167 168 170 171 171 171 172 173 173 175 179 184 187 187 186 185